Weather in Grevenmacher

Luxembourg     49°40′52″N   6°26′29″E
temp.,
°C
wind,
m/s
gust,
m/s
humid.,
%
clouds,
%
prec.,
mm/h
press.,
hPa
HPBL,
m
26 october, tue
tue2623:00+9ssw2692100 0.0 1021165
02:00+8ssw349799 0.0 102179
05:00+8ssw369733 0.1 1021164
08:00+8ssw249875 0.3 1022131
11:00+11wsw368661 0.0 1023493
14:00+13wsw576585 0.1 1023933
17:00+12sw477199 0.0 1023605
20:00+8sw339184 0.0 102537
27 october, wed
wed2723:00+7ssw229399 0.0 102630
02:00+7ssw2393100 0.0 102667
05:00+8s238973 0.0 1026109
08:00+7s229254 0.0 102626
11:00+11ssw238030 0.0 1026302
14:00+14ssw336979 0.0 1024590
17:00+14ssw237598 0.0 102399
20:00+10sse11875 0.0 102310
28 october, thu
thu2823:00+8ese118912 0.0 102310
02:00+7e11909 0.0 102210
05:00+6e11894 0.0 102110
08:00+5se11905 0.0 102110
11:00+10s23770 0.0 1020274
14:00+14s46632 0.0 1018687
17:00+13s36690 0.0 1017279
20:00+9se22865 0.0 101710
29 october, fri
fri2923:00+8se1187100 0.0 101610
02:00+7se1188100 0.0 101510
05:00+7se118698 0.0 101410
08:00+6sse218494 0.0 101310
11:00+11sse2566100 0.0 1012203
14:00+15s6145699 0.0 1010759
17:00+14s51061100 0.0 1009440
20:00+11sse31075100 0.0 1009248
30 october, sat
sat3023:00+11s61370100 0.0 1010639
02:00+10ssw41195100 2.6 1010679
05:00+11ssw6129278 0.3 1011769
08:00+10ssw51091100 0.4 1012746
11:00+11ssw4886100 0.0 1012568
14:00+13sse477486 0.0 1011564
17:00+13sse497756 0.1 1010639
20:00+12sse51290100 0.4 1010677